HORIZONS-2

Last updated on Mon Nov 03 2025 00:02:55 GMT+0000 (Coordinated Universal Time)

1 32388U 07063B 25306.37331337 -.00000240 00000+0 00000+0 0 9991 2 32388 2.0122 83.4145 0004136 160.7343 218.3691 1.00273733 65542
UTC large
Height (km)
Speed (km/s)
/
Latitude / Longitude
Inclination (degrees)
Orbital Period (minutes)
Azimuth
Elevation
Range (km)
Doppler Factor

Next 0 passes for location: London (51.5072 / 0.1276)

Sorry there are no passes over London.